Flag for Germany Weather past 2 weeks in Bad Oeynhausen, North Rhine-Westphalia, Germany

Now
81 °F

Passing clouds.


Feels Like: 81 °F
Forecast: 59 / 78 °F
Wind: 9 mph from East

Location: Bueckeburg

Current Time: Jul 23, 2014 at 6:27:46 PM

Latest Report: Jul 23, 2014 at 5:20 PM


Visibility: N/A

Pressure: 30.04 "Hg

Humidity: 42%

Dew point: 55 °F

Location of Bad OeynhausenLocation

Historic Weather in Bad Oeynhausen — Graph

°F

Bad Oeynhausen temperature yesterday

Maximum temperature yesterday: 82 °F (at 4:54 PM)
Minimum temperature yesterday: 59 °F (at 5:20 AM)
Average temperature yesterday: 69 °F

Past Weeks' High & Low Weather Summary

 TemperatureHumidityPressure
High91 °F (Jul 19, 4:20 PM)100% (Jul 8, 10:20 PM)30.18 "Hg (Jul 8, 10:20 PM)
Low52 °F (Jul 12, 6:20 AM)28% (Jul 19, 4:20 PM)29.62 "Hg (Jul 9, 9:51 AM)
Average69 °F72%29.93 "Hg
* Reported Jul 8 5:20 PM — Jul 23 5:20 PM, Bad Oeynhausen, Weather by CustomWeather, © 2014

Note: Actual official high and low records may vary slightly from our data, if they occured in-between our weather recording intervals... More about our weather records

Advertising

Bad Oeynhausen weather history for previous 24 hours

 ConditionsComfort  
Time TempWeatherWind HumidityBarometerVisibility
5:20 PM
Jul 23
81 °FPassing clouds.9 mph42%30.04 "HgN/A
4:20 PM81 °FPassing clouds.10 mph42%30.07 "HgN/A
3:20 PM81 °FPassing clouds.12 mph45%30.07 "HgN/A
2:20 PM81 °FPassing clouds.10 mph48%30.09 "HgN/A
1:20 PM79 °FPassing clouds.10 mph51%30.09 "HgN/A
12:20 PM77 °FPassing clouds.10 mph54%30.09 "HgN/A
11:20 AM75 °FPassing clouds.10 mph57%30.12 "HgN/A
10:20 AM72 °FPassing clouds.9 mph61%30.12 "HgN/A
7:20 AM64 °FScattered clouds.6 mph78%30.12 "HgN/A
6:20 AM63 °FPassing clouds.6 mph77%30.12 "HgN/A
5:20 AM63 °FMild.6 mph77%30.12 "HgN/A
4:20 AM64 °FMild.2 mph68%30.12 "HgN/A
3:20 AM66 °FMild.2 mph68%30.12 "HgN/A
2:20 AM68 °FMild.1 mph64%30.12 "HgN/A
1:20 AM68 °FMild.3 mph69%30.12 "HgN/A
6:20 PM
Jul 22
82 °FWarm.9 mph45%30.04 "HgN/A
Weather by CustomWeather, © 2014

See weather overviewHow to use our weather pages